TimeCDT,TemperatureF,Dew PointF,Humidity,Sea Level PressureIn,VisibilityMPH,Wind Direction,Wind SpeedMPH,Gust SpeedMPH,PrecipitationIn,Events,Conditions,WindDirDegrees,DateUTC
12:45 AM,33.8,33.8,100,30.21,10.0,North,9.2,23.0,0.00,,Overcast,350,2013-05-03 05:45:00
12:53 AM,34.0,33.1,96,30.24,10.0,NNW,15.0,20.7,0.00,,Overcast,330,2013-05-03 05:53:00
1:12 AM,33.8,33.8,100,30.23,10.0,NNW,12.7,20.7,N/A,,Overcast,330,2013-05-03 06:12:00
1:44 AM,33.8,33.8,100,30.21,8.0,NNW,12.7,20.7,0.01,Rain,Light Rain,340,2013-05-03 06:44:00
1:53 AM,33.1,33.1,100,30.21,6.0,NNW,15.0,20.7,0.02,Rain,Rain,340,2013-05-03 06:53:00
2:26 AM,32.0,32.0,100,30.18,4.0,North,9.2,-,0.02,Snow,Light Snow,350,2013-05-03 07:26:00
2:51 AM,32.0,32.0,100,30.17,2.5,North,9.2,-,0.04,Snow,Light Snow,350,2013-05-03 07:51:00
2:53 AM,32.0,32.0,100,30.19,2.5,North,9.2,-,0.04,Snow,Light Snow,350,2013-05-03 07:53:00
3:03 AM,33.8,32.0,93,30.18,3.0,North,8.1,-,0.00,Snow,Light Snow,350,2013-05-03 08:03:00
3:06 AM,33.8,32.0,93,30.18,2.5,Variable,5.8,-,0.01,Snow,Light Snow,0,2013-05-03 08:06:00
3:18 AM,32.0,32.0,100,30.18,1.8,NNW,6.9,-,0.02,Snow,Light Snow,340,2013-05-03 08:18:00
3:25 AM,32.0,32.0,100,30.18,1.8,NNW,10.4,-,0.03,Snow,Light Snow,340,2013-05-03 08:25:00
3:43 AM,32.0,32.0,100,30.16,1.0,NNW,9.2,-,0.06,Snow,Light Snow,340,2013-05-03 08:43:00
3:53 AM,32.0,32.0,100,30.18,0.8,NNW,8.1,-,0.07,Snow,Light Snow,340,2013-05-03 08:53:00
4:15 AM,32.0,32.0,100,30.15,1.2,NW,9.2,-,0.03,Snow,Light Snow,320,2013-05-03 09:15:00
4:30 AM,32.0,32.0,100,30.17,2.5,NNW,4.6,-,0.03,Snow,Light Snow,340,2013-05-03 09:30:00
4:41 AM,32.0,32.0,100,30.16,4.0,NNW,9.2,-,0.03,Snow,Light Snow,340,2013-05-03 09:41:00
4:53 AM,32.0,32.0,100,30.17,5.0,NNW,8.1,-,0.03,Snow,Light Snow,340,2013-05-03 09:53:00
5:53 AM,33.1,33.1,100,30.15,10.0,NNW,9.2,-,0.00,,Overcast,340,2013-05-03 10:53:00
6:22 AM,33.8,33.8,100,30.12,10.0,North,8.1,18.4,0.00,Snow,Light Snow,350,2013-05-03 11:22:00
6:53 AM,33.1,33.1,100,30.15,9.0,NNW,9.2,-,0.01,Snow,Light Snow,340,2013-05-03 11:53:00
7:53 AM,34.0,33.1,96,30.14,10.0,NNW,8.1,16.1,0.00,,Overcast,330,2013-05-03 12:53:00
8:10 AM,33.8,33.8,100,30.12,10.0,NNW,11.5,17.3,N/A,,Overcast,330,2013-05-03 13:10:00
8:53 AM,35.1,34.0,96,30.13,8.0,NW,16.1,23.0,N/A,,Overcast,320,2013-05-03 13:53:00
9:53 AM,36.0,35.1,97,30.13,10.0,NNW,6.9,-,N/A,,Overcast,340,2013-05-03 14:53:00
10:53 AM,37.0,36.0,96,30.12,5.0,NW,11.5,-,0.00,Rain,Light Rain,320,2013-05-03 15:53:00
11:53 AM,37.9,37.0,97,30.11,7.0,NW,9.2,19.6,0.01,Rain,Light Rain,310,2013-05-03 16:53:00
12:53 PM,39.9,39.0,97,30.09,10.0,NW,11.5,-,0.02,Rain,Light Rain,310,2013-05-03 17:53:00
1:53 PM,43.0,37.0,80,30.07,10.0,NW,15.0,21.9,0.01,,Overcast,320,2013-05-03 18:53:00
2:53 PM,44.1,30.9,60,30.06,10.0,NW,16.1,25.3,N/A,,Overcast,320,2013-05-03 19:53:00
3:53 PM,46.0,30.9,56,30.04,10.0,NW,16.1,24.2,N/A,,Overcast,320,2013-05-03 20:53:00
4:53 PM,46.9,28.9,50,30.01,10.0,NW,18.4,24.2,N/A,,Overcast,310,2013-05-03 21:53:00
5:53 PM,46.0,28.9,51,30.01,10.0,NW,19.6,28.8,N/A,,Overcast,310,2013-05-03 22:53:00
6:53 PM,45.0,30.0,56,30.01,10.0,NNW,13.8,24.2,N/A,,Overcast,330,2013-05-03 23:53:00
7:53 PM,43.0,30.9,62,30.01,10.0,NW,8.1,-,N/A,,Overcast,320,2013-05-04 00:53:00
8:53 PM,41.0,32.0,70,30.02,10.0,NNE,6.9,-,N/A,,Overcast,20,2013-05-04 01:53:00
9:53 PM,41.0,32.0,70,30.01,10.0,North,9.2,18.4,N/A,,Overcast,350,2013-05-04 02:53:00
10:53 PM,39.9,33.1,77,30.00,10.0,NW,10.4,-,N/A,,Overcast,320,2013-05-04 03:53:00
11:53 PM,39.0,34.0,82,29.97,10.0,WNW,6.9,-,N/A,,Overcast,300,2013-05-04 04:53:00